Weather History for Fort Myers, FL

Change the Weather History Date:

Tuesday, December 4, 2012

  Actual Average Record
Temperature  
Mean Temperature 71 °F 68 °F  
Max Temperature 81 °F 78 °F 87 °F (1978)
Min Temperature 60 °F 59 °F 36 °F (1910)
Degree Days  
Heating Degree Days 0 1  
Month to date heating degree days 0 4  
Since 1 July heating degree days 15 22  
Cooling Degree Days 6 5  
Month to date cooling degree days 25 20  
Year to date cooling degree days 4238 3883  
Growing Degree Days 20 (Base 50)    
Moisture  
Dew Point 56 °F    
Average Humidity 65    
Maximum Humidity 97    
Minimum Humidity 45    
Precipitation  
Precipitation 0.00 in 0.05 in 2.17 in (2009)
Month to date precipitation 0.00 0.18  
Year to date precipitation 47.43 54.40  
Sea Level Pressure  
Sea Level Pressure 30.20 in    
Wind  
Wind Speed 7 mph (ENE)    
Max Wind Speed 15 mph    
Max Gust Speed 20 mph    
Visibility 10 miles    
Events      
T = Trace of Precipitation, MM = Missing Value Source: NWS Daily Summary

Daily Weather History Graph

Daily Weather History Graph

Search for Another Location

Airport:

Trip Planner

Search our weather history database for the weather conditions in past years. The results will help you decide how hot, cold, wet, or windy it might be!

Date:

Astronomy

Dec. 04, 2012 Rise Set
Actual Time 7:01 AM EST 5:34 PM EST
Civil Twilight 6:35 AM EST 5:59 PM EST
Nautical Twilight 6:07 AM EST 6:28 PM EST
Astronomical Twilight 5:39 AM EST 6:56 PM EST
Moon 10:59 PM EST (12/4) 11:13 AM EST (12/4)
Length of Visible Light 11h 23m
Length of Day
10h 33m
Waning Gibbous, 69% of the Moon is Illuminated
Dec 4
Waning Gibbous
Dec 6
Last Quarter
Dec 13
New
Dec 20
First Quarter
Dec 28
Full

Hourly Weather History & Observations

Time (EST) Temp. Dew Point Humidity Pressure Visibility Wind Dir Wind Speed Gust Speed Precip Events Conditions
1:53 AM 64.0 °F 55.9 °F 75% 30.21 in 10.0 mi ENE 3.5 mph - N/A   Overcast
2:53 AM 63.0 °F 57.0 °F 81% 30.21 in 10.0 mi ENE 4.6 mph - N/A   Mostly Cloudy
3:53 AM 61.0 °F 57.0 °F 87% 30.20 in 10.0 mi ENE 4.6 mph - N/A   Mostly Cloudy
4:53 AM 61.0 °F 57.9 °F 90% 30.20 in 10.0 mi NE 4.6 mph - N/A   Clear
6:53 AM 61.0 °F 59.0 °F 93% 30.22 in 10.0 mi ENE 5.8 mph - N/A   Clear
7:53 AM 63.0 °F 59.0 °F 87% 30.23 in 10.0 mi ENE 5.8 mph - N/A   Clear
8:53 AM 68.0 °F 57.9 °F 70% 30.25 in 10.0 mi ENE 5.8 mph - N/A   Clear
9:53 AM 73.9 °F 55.9 °F 53% 30.26 in 10.0 mi ENE 5.8 mph - N/A   Clear
10:53 AM 77.0 °F 55.0 °F 47% 30.26 in 10.0 mi East 9.2 mph - N/A   Mostly Cloudy
11:53 AM 78.1 °F 55.9 °F 46% 30.24 in 10.0 mi ENE 11.5 mph - N/A   Overcast
12:53 PM 77.0 °F 57.0 °F 50% 30.19 in 10.0 mi East 6.9 mph - N/A   Overcast
1:53 PM 79.0 °F 57.9 °F 48% 30.17 in 10.0 mi ENE 10.4 mph - N/A   Overcast
2:53 PM 79.0 °F 57.0 °F 47% 30.16 in 10.0 mi East 13.8 mph 19.6 mph N/A   Mostly Cloudy
3:53 PM 77.0 °F 59.0 °F 54% 30.16 in 10.0 mi ENE 11.5 mph - N/A   Overcast
4:53 PM 75.0 °F 60.1 °F 60% 30.17 in 10.0 mi ENE 11.5 mph - N/A   Overcast
5:53 PM 73.0 °F 57.0 °F 57% 30.18 in 10.0 mi ENE 6.9 mph - N/A   Mostly Cloudy
6:53 PM 72.0 °F 54.0 °F 53% 30.19 in 10.0 mi East 6.9 mph - N/A   Overcast
7:53 PM 70.0 °F 54.0 °F 57% 30.19 in 10.0 mi East 5.8 mph - N/A   Overcast
8:53 PM 66.9 °F 53.1 °F 61% 30.19 in 10.0 mi ENE 5.8 mph - N/A   Partly Cloudy
9:53 PM 66.0 °F 54.0 °F 65% 30.19 in 10.0 mi ENE 5.8 mph - N/A   Clear
10:53 PM 63.0 °F 54.0 °F 72% 30.18 in 10.0 mi ENE 4.6 mph - N/A   Clear
11:53 PM 60.1 °F 54.0 °F 80% 30.19 in 10.0 mi East 4.6 mph - N/A   Clear